This demonstration page uses our WeatherBlox Daily Observations layout. Learn more.

Left ArrowRight Arrow

39.51506, -84.39828

Hourly Observations for October 10, 2020

Temp ( °F °C ) Dew Point ( °F °C ) Humidity (%) Winds ( mph kmh ) Pressure ( in mb ) Visibility ( mi km ) Precip ( " mm )
12:15 am 00:15 Clear 69 20.4 62 16.9 80 80 WSW 8 13 29.99 1016 10 16.0934 0 0
12:35 am 00:35 Clear 68 20 63 17 83 83 WSW 8 13 29.99 1016 10 16.0934 0 0
12:55 am 00:55 Clear 66 18.7 62 16.7 88 88 W 5 7 29.99 1015 10 16.0934 0 0
1:15 am 01:15 Clear 65 18.4 62 16.6 89 89 SW 5 7 29.99 1016 7 11.26538 0 0
1:35 am 01:35 Clear 64 17.9 62 16.6 92 92 WSW 7 11 29.99 1016 10 16.0934 0 0
1:55 am 01:55 Clear 65 18.6 62 16.8 89 89 WSW 7 11 29.99 1016 10 16.0934 0 0
2:15 am 02:15 Clear 65 18.4 62 16.6 89 89 SW 6 9 29.99 1016 10 16.0934 0 0
2:35 am 02:35 Clear 63 17.4 61 16.2 93 93 W 5 7 29.99 1016 10 16.0934 0 0
2:55 am 02:55 Clear 62 16.8 61 16 95 95 SW 5 7 29.99 1016 10 16.0934 0 0
3:15 am 03:15 Clear 62 16.7 61 15.9 95 95 WSW 6 9 30 1016 10 16.0934 0 0
3:35 am 03:35 Clear 63 17.2 61 16.1 93 93 WSW 6 9 29.99 1016 10 16.0934 0 0
3:55 am 03:55 Clear 62 16.5 60 15.8 96 96 W 5 7 29.99 1016 10 16.0934 0 0
4:15 am 04:15 Partly Cloudy 61 16 60 15.7 98 98 Calm 29.99 1016 10 16.0934 0 0
4:35 am 04:35 Partly Cloudy 60 15.8 60 15.6 99 99 WSW 5 7 29.99 1016 10 16.0934 0 0
4:55 am 04:55 Partly Cloudy 61 16.2 60 15.7 97 97 WSW 3 6 29.99 1016 10 16.0934 0 0
5:15 am 05:15 Partly Cloudy 62 16.4 60 15.8 96 96 Calm 29.98 1015 10 16.0934 0 0
5:35 am 05:35 Clear 60 15.8 60 15.6 99 99 W 3 6 29.98 1015 10 16.0934 0 0
5:55 am 05:55 Mostly Cloudy 62 16.4 61 16.1 98 98 WSW 5 7 29.99 1016 10 16.0934 0 0
6:15 am 06:15 Mostly Cloudy 61 16.3 60 15.8 97 97 WSW 5 7 30 1016 10 16.0934 0 0
6:35 am 06:35 Partly Cloudy 60 15.8 60 15.4 97 97 W 3 6 30 1016 10 16.0934 0 0
6:55 am 06:55 Cloudy 61 16.2 61 16 99 99 Calm 30 1016 10 16.0934 0 0
7:15 am 07:15 Cloudy 61 16.1 61 15.9 99 99 Calm 30.01 1016 10 16.0934 0 0
7:35 am 07:35 Cloudy 61 16.3 61 16.1 99 99 Calm 30 1016 10 16.0934 0 0
7:55 am 07:55 Cloudy 62 16.9 62 16.4 97 97 WSW 5 7 30.01 1016 10 16.0934 0 0
8:15 am 08:15 Cloudy 64 17.6 62 16.5 93 93 Calm 30.01 1016 10 16.0934 0 0
8:35 am 08:35 Cloudy 64 18 62 16.7 92 92 WSW 6 9 30.01 1016 10 16.0934 0 0
8:55 am 08:55 Cloudy 65 18.4 62 16.8 90 90 WSW 7 11 30.01 1016 10 16.0934 0 0
9:15 am 09:15 Cloudy 65 18.2 63 17 93 93 Calm 30.02 1017 10 16.0934 0 0
9:35 am 09:35 Cloudy 66 18.7 63 17 90 90 SW 5 7 30.01 1016 10 16.0934 0 0
9:55 am 09:55 Cloudy 66 19 62 16.9 88 88 SW 3 6 30.01 1016 10 16.0934 0 0
10:15 am 10:15 Cloudy 67 19.2 62 16.9 87 87 SW 7 11 30.01 1016 10 16.0934 0 0
10:35 am 10:35 Cloudy 68 20 63 17.1 83 83 WSW 12 19 30 1016 10 16.0934 0 0
10:55 am 10:55 Cloudy 68 20 62 16.9 82 82 WSW 8 13 30 1016 10 16.0934 0 0
11:15 am 11:15 Cloudy with Light Rain 68 19.8 63 17.3 86 86 W 7 11 30.01 1016 10 16.0934 0 0
11:35 am 11:35 Cloudy 69 20.3 63 17.2 82 82 W 7 11 29.99 1016 10 16.0934 0 0
11:55 am 11:55 Cloudy 70 21 63 17.4 80 80 W 13 20 29.99 1016 10 16.0934 0 0
12:15 pm 12:15 Cloudy 70 21.2 63 17.3 79 79 W 12 19 29.99 1016 10 16.0934 0 0
12:35 pm 12:35 Cloudy 72 22 63 17.4 75 75 W 10 17 29.98 1015 10 16.0934 0 0
12:55 pm 12:55 Mostly Cloudy 73 22.8 64 17.7 73 73 WSW 12 19 29.98 1015 10 16.0934 0 0
1:15 pm 13:15 Cloudy 73 22.7 64 17.5 73 73 WSW 15 24 29.97 1015 10 16.0934 0 0
1:55 pm 13:55 Cloudy 72 22.2 64 17.6 75 75 WSW 12 19 29.97 1015 10 16.0934 0 0
2:15 pm 14:15 Cloudy 72 22.4 64 17.8 75 75 WSW 12 19 29.97 1015 10 16.0934 0 0
2:35 pm 14:35 Cloudy 73 22.8 64 17.8 74 74 WSW 12 19 29.96 1014 10 16.0934 0 0
2:55 pm 14:55 Cloudy 73 22.8 64 17.9 74 74 SW 10 17 29.96 1014 10 16.0934 0 0
3:15 pm 15:15 Cloudy 73 23 64 17.9 73 73 SW 9 15 29.95 1014 10 16.0934 0 0
3:35 pm 15:35 Mostly Cloudy 74 23.4 64 18 72 72 SW 8 13 29.94 1014 10 16.0934 0 0
3:55 pm 15:55 Mostly Cloudy 75 23.8 65 18.2 71 71 SW 7 11 29.94 1014 10 16.0934 0 0
4:15 pm 16:15 Partly Cloudy 75 23.7 65 18.2 71 71 SW 9 15 29.94 1014 10 16.0934 0 0
4:35 pm 16:35 Sunny 75 23.9 65 18.2 71 71 SW 9 15 29.94 1014 10 16.0934 0 0
4:55 pm 16:55 Sunny 75 23.9 65 18.4 71 71 SW 8 13 29.93 1013 10 16.0934 0 0
5:15 pm 17:15 Sunny 75 23.8 65 18.3 71 71 SW 9 15 29.93 1013 10 16.0934 0 0
5:35 pm 17:35 Partly Cloudy 73 23 65 18.2 74 74 SSW 9 15 29.93 1013 10 16.0934 0 0
5:55 pm 17:55 Partly Cloudy 73 22.7 65 18.2 76 76 SW 8 13 29.93 1013 10 16.0934 0 0
6:15 pm 18:15 Mostly Cloudy 73 22.5 65 18.2 77 77 SW 8 13 29.93 1014 10 16.0934 0 0
6:35 pm 18:35 Cloudy 72 22.4 65 18.2 77 77 SSW 7 11 29.94 1014 10 16.0934 0 0
6:55 pm 18:55 Partly Cloudy 72 22.2 65 18.3 79 79 SSW 6 9 29.94 1014 10 16.0934 0 0
7:15 pm 19:15 Cloudy 72 22.1 65 18.4 80 80 SW 7 11 29.95 1014 10 16.0934 0 0
7:35 pm 19:35 Cloudy 72 22 65 18.5 81 81 SW 5 7 29.96 1015 10 16.0934 0 0
7:55 pm 19:55 Mostly Cloudy 71 21.7 65 18.5 82 82 Calm 29.95 1014 10 16.0934 0 0
8:15 pm 20:15 Clear 70 21.1 65 18.4 85 85 SSW 3 6 29.94 1014 10 16.0934 0 0
8:35 pm 20:35 Clear 69 20.8 65 18.4 86 86 Calm 29.93 1014 10 16.0934 0 0
8:55 pm 20:55 Clear 68 20.2 65 18.4 89 89 S 5 7 29.93 1014 10 16.0934 0 0
9:15 pm 21:15 Clear 67 19.2 64 17.8 92 92 Calm 29.95 1014 10 16.0934 0 0
9:35 pm 21:35 Clear 64 17.7 63 17.2 97 97 Calm 29.95 1014 10 16.0934 0 0
9:55 pm 21:55 Clear 63 17.2 63 17.1 99 99 Calm 29.95 1014 10 16.0934 0 0
10:15 pm 22:15 Clear 63 17 63 17 100 100 Calm 29.96 1015 10 16.0934 0 0
10:35 pm 22:35 Hazy 61 16 N/A N/A Calm 29.97 1015 5 8.0467 0 0
10:55 pm 22:55 Clear 61 16 N/A N/A Calm 29.97 1015 7 11.26538 0 0
11:15 pm 23:15 Clear 63 17 N/A N/A Calm 29.96 1015 7 11.26538 0 0
11:35 pm 23:35 Clear 61 16 N/A N/A Calm 29.96 1015 7 11.26538 0 0
11:55 pm 23:55 Clear 61 16 N/A N/A Calm 29.96 1015 7 11.26538 0 0

Powered by AerisWeather